,,,PA_Meas_PMT16A,,PR_Meas_QMR101_102,,RH_Meas_QMH101,,SR_Meas_QMS101,,TA_Meas_QMH101,,GenWind,,GenWind,
date,time,status,PA,status,PR,status,RH,status,SR,status,TA,status,DirAvg,status,SpdAvg,
2014-07-27, 00:00:04,VALID,1011.9,VALID,0,VALID,97.8689,VALID,0.112112,VALID,23.3805,VALID,203,VALID,0,
2014-07-27, 00:01:04,VALID,1011.88,VALID,0,VALID,98.0519,VALID,0.112112,VALID,23.3823,VALID,203,VALID,0,
2014-07-27, 00:02:04,VALID,1011.88,VALID,0,VALID,98.3188,VALID,0,VALID,23.3823,VALID,203,VALID,0,
2014-07-27, 00:03:04,VALID,1011.9,VALID,0,VALID,98.7764,VALID,0,VALID,23.3823,VALID,203,VALID,0,
2014-07-27, 00:04:04,VALID,1011.94,VALID,0,VALID,99.089,VALID,0,VALID,23.3823,VALID,203,VALID,0.299609,
2014-07-27, 00:05:04,VALID,1011.95,VALID,0,VALID,99.3178,VALID,0,VALID,23.3805,VALID,203,VALID,0.34375,
2014-07-27, 00:06:04,VALID,1011.95,VALID,0,VALID,99.5542,VALID,0.112112,VALID,23.4,VALID,203,VALID,0.336328,
2014-07-27, 00:07:04,VALID,1011.92,VALID,0,VALID,99.6457,VALID,0,VALID,23.3823,VALID,203,VALID,0.247266,
2014-07-27, 00:08:04,VALID,1011.91,VALID,0,VALID,99.6533,VALID,0.112112,VALID,23.3415,VALID,203,VALID,0.342578,
2014-07-27, 00:09:04,VALID,1011.9,VALID,0,VALID,99.6762,VALID,0,VALID,23.322,VALID,203,VALID,0.157422,
2014-07-27, 00:10:04,VALID,1011.9,VALID,0,VALID,99.6533,VALID,0.112112,VALID,23.2831,VALID,203,VALID,0,
2014-07-27, 00:11:04,VALID,1011.91,VALID,0,VALID,99.5923,VALID,0,VALID,23.2459,VALID,203,VALID,0,
2014-07-27, 00:12:04,VALID,1011.92,VALID,0,VALID,99.6152,VALID,0,VALID,23.2069,VALID,203,VALID,0,
2014-07-27, 00:13:04,VALID,1011.91,VALID,0,VALID,99.7296,VALID,0.112112,VALID,23.1874,VALID,203,VALID,0,
2014-07-27, 00:14:04,VALID,1011.88,VALID,0,VALID,99.9736,VALID,0,VALID,23.1874,VALID,203,VALID,0,
2014-07-27, 00:15:04,VALID,1011.91,VALID,0,VALID,100.187,VALID,0.112112,VALID,23.1679,VALID,203,VALID,0,
2014-07-27, 00:16:04,VALID,1011.9,VALID,0,VALID,100.324,VALID,0,VALID,23.1272,VALID,203,VALID,0,
2014-07-27, 00:17:04,VALID,1011.91,VALID,0,VALID,100.462,VALID,0,VALID,23.129,VALID,203,VALID,0,
2014-07-27, 00:18:04,VALID,1011.87,VALID,0,VALID,100.576,VALID,0.112112,VALID,23.0883,VALID,203,VALID,0,
2014-07-27, 00:19:04,VALID,1011.89,VALID,0,VALID,100.614,VALID,0.112112,VALID,23.0688,VALID,203,VALID,0,
2014-07-27, 00:20:04,VALID,1011.84,VALID,0,VALID,100.751,VALID,0,VALID,23.0705,VALID,203,VALID,0.0722656,
2014-07-27, 00:21:04,VALID,1011.83,VALID,0,VALID,100.965,VALID,0.112112,VALID,23.0493,VALID,203,VALID,0.125781,
2014-07-27, 00:22:04,VALID,1011.86,VALID,0,VALID,101.186,VALID,0.112112,VALID,23.0493,VALID,203,VALID,0.128516,
2014-07-27, 00:23:04,VALID,1011.84,VALID,0,VALID,101.362,VALID,0.112112,VALID,23.0493,VALID,203,VALID,0,
2014-07-27, 00:24:04,VALID,1011.84,VALID,0,VALID,101.606,VALID,0,VALID,23.09,VALID,203,VALID,0.242969,
2014-07-27, 00:25:04,VALID,1011.83,VALID,0,VALID,101.689,VALID,0,VALID,23.0705,VALID,203,VALID,0,
2014-07-27, 00:26:04,VALID,1011.83,VALID,0,VALID,101.75,VALID,0,VALID,23.0705,VALID,203,VALID,0,
2014-07-27, 00:27:04,VALID,1011.8,VALID,0,VALID,101.773,VALID,0,VALID,23.0316,VALID,203,VALID,0,
2014-07-27, 00:28:04,VALID,1011.76,VALID,0,VALID,101.819,VALID,0,VALID,23.0121,VALID,203,VALID,0.150391,
2014-07-27, 00:29:04,VALID,1011.74,VALID,0,VALID,101.865,VALID,0,VALID,22.9926,VALID,203,VALID,0.101172,
2014-07-27, 00:30:04,VALID,1011.73,VALID,0,VALID,101.987,VALID,0,VALID,22.9926,VALID,203,VALID,0.05625,
2014-07-27, 00:31:04,VALID,1011.7,VALID,0,VALID,102.033,VALID,0.112112,VALID,22.9731,VALID,203,VALID,0,
2014-07-27, 00:32:04,VALID,1011.68,VALID,0,VALID,102.071,VALID,0,VALID,22.9342,VALID,203,VALID,0,
2014-07-27, 00:33:04,VALID,1011.69,VALID,0,VALID,102.162,VALID,0.112112,VALID,22.9342,VALID,203,VALID,0,
2014-07-27, 00:34:04,VALID,1011.69,VALID,0,VALID,102.261,VALID,0,VALID,22.9342,VALID,203,VALID,0,
2014-07-27, 00:35:04,VALID,1011.66,VALID,0,VALID,102.399,VALID,0,VALID,22.9147,VALID,203,VALID,0,
2014-07-27, 00:36:04,VALID,1011.65,VALID,0,VALID,102.566,VALID,0,VALID,22.9147,VALID,203,VALID,0,
2014-07-27, 00:37:04,VALID,1011.62,VALID,0,VALID,102.673,VALID,0,VALID,22.9147,VALID,203,VALID,0,
2014-07-27, 00:38:04,VALID,1011.6,VALID,0,VALID,102.719,VALID,0,VALID,22.8952,VALID,203,VALID,0,
2014-07-27, 00:39:04,VALID,1011.6,VALID,0,VALID,102.742,VALID,0,VALID,22.8952,VALID,203,VALID,0,
2014-07-27, 00:40:04,VALID,1011.58,VALID,0,VALID,102.765,VALID,0,VALID,22.8368,VALID,203,VALID,0.198828,
2014-07-27, 00:41:04,VALID,1011.62,VALID,0,VALID,102.841,VALID,0,VALID,22.8368,VALID,203,VALID,0.0164062,
2014-07-27, 00:42:04,VALID,1011.63,VALID,0,VALID,102.932,VALID,0,VALID,22.8173,VALID,203,VALID,0,
2014-07-27, 00:43:04,VALID,1011.65,VALID,0,VALID,103.062,VALID,0,VALID,22.8173,VALID,203,VALID,0,
2014-07-27, 00:44:04,VALID,1011.66,VALID,0,VALID,103.26,VALID,0,VALID,22.8368,VALID,203,VALID,0.470313,
2014-07-27, 00:45:04,VALID,1011.7,VALID,0,VALID,103.367,VALID,0,VALID,22.8368,VALID,203,VALID,0.317578,
2014-07-27, 00:46:04,VALID,1011.72,VALID,0,VALID,103.443,VALID,0,VALID,22.8173,VALID,203,VALID,0.284375,
2014-07-27, 00:47:04,VALID,1011.73,VALID,0,VALID,103.52,VALID,0,VALID,22.8173,VALID,203,VALID,0,
2014-07-27, 00:48:04,VALID,1011.72,VALID,0,VALID,103.634,VALID,0,VALID,22.8368,VALID,203,VALID,0,
2014-07-27, 00:49:04,VALID,1011.75,VALID,0,VALID,103.687,VALID,0,VALID,22.8368,VALID,203,VALID,0,
2014-07-27, 00:50:04,VALID,1011.73,VALID,0,VALID,103.733,VALID,0,VALID,22.8173,VALID,203,VALID,0,
2014-07-27, 00:51:04,VALID,1011.72,VALID,0,VALID,103.756,VALID,0,VALID,22.7961,VALID,203,VALID,0,
2014-07-27, 00:52:04,VALID,1011.71,VALID,0,VALID,103.794,VALID,0,VALID,22.7978,VALID,203,VALID,0,
2014-07-27, 00:53:04,VALID,1011.69,VALID,0,VALID,103.878,VALID,0,VALID,22.7978,VALID,203,VALID,0,
2014-07-27, 00:54:04,VALID,1011.72,VALID,0,VALID,103.947,VALID,0,VALID,22.7978,VALID,203,VALID,0,
2014-07-27, 00:55:04,VALID,1011.74,VALID,0,VALID,103.962,VALID,0,VALID,22.7783,VALID,203,VALID,0,
2014-07-27, 00:56:04,VALID,1011.72,VALID,0,VALID,104,VALID,0.112112,VALID,22.7783,VALID,203,VALID,0,
2014-07-27, 00:57:04,VALID,1011.72,VALID,0,VALID,104,VALID,0,VALID,22.7394,VALID,203,VALID,0,
2014-07-27, 00:58:04,VALID,1011.7,VALID,0,VALID,104,VALID,0.112112,VALID,22.7394,VALID,203,VALID,0,
2014-07-27, 00:59:04,VALID,1011.67,VALID,0,VALID,104,VALID,0,VALID,22.7004,VALID,203,VALID,0,
2014-07-27, 01:00:04,VALID,1011.7,VALID,0,VALID,104,VALID,0,VALID,22.7004,VALID,203,VALID,0,
2014-07-27, 01:01:04,VALID,1011.68,VALID,0,VALID,104,VALID,0.112112,VALID,22.7004,VALID,203,VALID,0,
2014-07-27, 01:02:04,VALID,1011.68,VALID,0,VALID,104,VALID,0,VALID,22.6809,VALID,203,VALID,0,
2014-07-27, 01:03:04,VALID,1011.68,VALID,0,VALID,104,VALID,0.112112,VALID,22.6809,VALID,203,VALID,0,
2014-07-27, 01:04:04,VALID,1011.64,VALID,0,VALID,104,VALID,0,VALID,22.6614,VALID,203,VALID,0,
2014-07-27, 01:05:04,VALID,1011.62,VALID,0,VALID,104,VALID,0,VALID,22.642,VALID,203,VALID,0,
2014-07-27, 01:06:04,VALID,1011.6,VALID,0,VALID,104,VALID,0,VALID,22.6225,VALID,203,VALID,0,
2014-07-27, 01:07:04,VALID,1011.57,VALID,0,VALID,104,VALID,0,VALID,22.603,VALID,203,VALID,0,
2014-07-27, 01:08:04,VALID,1011.59,VALID,0,VALID,104,VALID,0,VALID,22.5818,VALID,203,VALID,0,
2014-07-27, 01:09:04,VALID,1011.59,VALID,0,VALID,104,VALID,0,VALID,22.564,VALID,203,VALID,0,
2014-07-27, 01:10:04,VALID,1011.56,VALID,0,VALID,104,VALID,0.112112,VALID,22.5835,VALID,203,VALID,0.312109,
2014-07-27, 01:11:04,VALID,1011.55,VALID,0,VALID,104,VALID,0,VALID,22.5835,VALID,203,VALID,0.322266,
2014-07-27, 01:12:04,VALID,1011.57,VALID,0,VALID,104,VALID,0,VALID,22.5429,VALID,203,VALID,0.253125,
2014-07-27, 01:13:04,VALID,1011.59,VALID,0,VALID,104,VALID,0,VALID,22.564,VALID,203,VALID,0.259375,
2014-07-27, 01:14:04,VALID,1011.59,VALID,0,VALID,104,VALID,0,VALID,22.564,VALID,203,VALID,0.348828,
2014-07-27, 01:15:04,VALID,1011.6,VALID,0,VALID,104,VALID,0,VALID,22.564,VALID,203,VALID,0.118359,
2014-07-27, 01:16:04,VALID,1011.56,VALID,0,VALID,104,VALID,0,VALID,22.5446,VALID,203,VALID,0.153516,
2014-07-27, 01:17:04,VALID,1011.56,VALID,0,VALID,104,VALID,0,VALID,22.5446,VALID,203,VALID,0,
2014-07-27, 01:18:04,VALID,1011.53,VALID,0,VALID,104,VALID,0,VALID,22.564,VALID,203,VALID,0,
2014-07-27, 01:19:04,VALID,1011.5,VALID,0,VALID,104,VALID,0.112112,VALID,22.5446,VALID,203,VALID,0,
2014-07-27, 01:20:04,VALID,1011.49,VALID,0,VALID,104,VALID,0,VALID,22.5446,VALID,203,VALID,0,
2014-07-27, 01:21:04,VALID,1011.44,VALID,0,VALID,104,VALID,0,VALID,22.4861,VALID,203,VALID,0,
2014-07-27, 01:22:04,VALID,1011.46,VALID,0,VALID,104,VALID,0.112112,VALID,22.4667,VALID,203,VALID,0,
2014-07-27, 01:23:04,VALID,1011.48,VALID,0,VALID,104,VALID,0.112112,VALID,22.4277,VALID,203,VALID,0,
2014-07-27, 01:24:04,VALID,1011.49,VALID,0,VALID,104,VALID,0,VALID,22.4082,VALID,203,VALID,0,
2014-07-27, 01:25:04,VALID,1011.48,VALID,0,VALID,104,VALID,0,VALID,22.3887,VALID,203,VALID,0,
2014-07-27, 01:26:04,VALID,1011.47,VALID,0,VALID,104,VALID,0,VALID,22.3887,VALID,203,VALID,0,
2014-07-27, 01:27:04,VALID,1011.44,VALID,0,VALID,104,VALID,0,VALID,22.3693,VALID,203,VALID,0,
2014-07-27, 01:28:04,VALID,1011.42,VALID,0,VALID,104,VALID,0,VALID,22.3693,VALID,203,VALID,0,
2014-07-27, 01:29:04,VALID,1011.36,VALID,0,VALID,104,VALID,0,VALID,22.3693,VALID,203,VALID,0,
2014-07-27, 01:30:04,VALID,1011.4,VALID,0,VALID,104,VALID,0,VALID,22.3693,VALID,203,VALID,0,
2014-07-27, 01:31:04,VALID,1011.37,VALID,0,VALID,104,VALID,0.112112,VALID,22.3693,VALID,203,VALID,0,
2014-07-27, 01:32:04,VALID,1011.42,VALID,0,VALID,104,VALID,0.112112,VALID,22.3498,VALID,203,VALID,0,
2014-07-27, 01:33:04,VALID,1011.42,VALID,0,VALID,104,VALID,0.112112,VALID,22.3887,VALID,203,VALID,0.317187,
2014-07-27, 01:34:04,VALID,1011.41,VALID,0,VALID,104,VALID,0,VALID,22.4277,VALID,203,VALID,0.462891,
2014-07-27, 01:35:04,VALID,1011.43,VALID,0,VALID,104,VALID,0,VALID,22.4277,VALID,203,VALID,0.392188,
2014-07-27, 01:36:04,VALID,1011.43,VALID,0,VALID,104,VALID,0,VALID,22.4277,VALID,203,VALID,0.206641,
2014-07-27, 01:37:04,VALID,1011.41,VALID,0,VALID,104,VALID,0,VALID,22.4472,VALID,203,VALID,0.135156,
2014-07-27, 01:38:04,VALID,1011.39,VALID,0,VALID,104,VALID,0,VALID,22.4455,VALID,203,VALID,0.0800781,
2014-07-27, 01:39:04,VALID,1011.37,VALID,0,VALID,104,VALID,0.112112,VALID,22.4861,VALID,203,VALID,0.287109,
2014-07-27, 01:40:04,VALID,1011.37,VALID,0,VALID,104,VALID,0,VALID,22.4667,VALID,203,VALID,0.260156,
2014-07-27, 01:41:04,VALID,1011.38,VALID,0,VALID,104,VALID,0,VALID,22.4861,VALID,203,VALID,0.276172,
2014-07-27, 01:42:04,VALID,1011.36,VALID,0,VALID,104,VALID,0,VALID,22.4861,VALID,203,VALID,0.317578,
2014-07-27, 01:43:04,VALID,1011.37,VALID,0,VALID,104,VALID,0,VALID,22.4667,VALID,203,VALID,0.342578,
2014-07-27, 01:44:04,VALID,1011.38,VALID,0,VALID,104,VALID,0,VALID,22.5056,VALID,203,VALID,0.428125,
2014-07-27, 01:45:04,VALID,1011.39,VALID,0,VALID,104,VALID,0,VALID,22.5056,VALID,203,VALID,0.146484,
2014-07-27, 01:46:04,VALID,1011.39,VALID,0,VALID,104,VALID,0,VALID,22.5056,VALID,203,VALID,0,
2014-07-27, 01:47:04,VALID,1011.4,VALID,0,VALID,104,VALID,0,VALID,22.5056,VALID,203,VALID,0,
2014-07-27, 01:48:04,VALID,1011.41,VALID,0,VALID,104,VALID,0,VALID,22.4472,VALID,203,VALID,0,
2014-07-27, 01:49:04,VALID,1011.42,VALID,0,VALID,104,VALID,0.112112,VALID,22.387,VALID,203,VALID,0,
2014-07-27, 01:50:04,VALID,1011.41,VALID,0,VALID,104,VALID,0,VALID,22.3286,VALID,203,VALID,0,
2014-07-27, 01:51:04,VALID,1011.39,VALID,0,VALID,104,VALID,0,VALID,22.3498,VALID,203,VALID,0,
2014-07-27, 01:52:04,VALID,1011.39,VALID,0,VALID,104,VALID,0,VALID,22.3303,VALID,203,VALID,0,
2014-07-27, 01:53:04,VALID,1011.41,VALID,0,VALID,104,VALID,0,VALID,22.3108,VALID,203,VALID,0,
2014-07-27, 01:54:04,VALID,1011.39,VALID,0,VALID,104,VALID,0,VALID,22.2914,VALID,203,VALID,0,
2014-07-27, 01:55:04,VALID,1011.39,VALID,0,VALID,104,VALID,0,VALID,22.2719,VALID,203,VALID,0,
2014-07-27, 01:56:04,VALID,1011.38,VALID,0,VALID,104,VALID,0,VALID,22.2719,VALID,203,VALID,0,
2014-07-27, 01:57:04,VALID,1011.37,VALID,0,VALID,104,VALID,0,VALID,22.2524,VALID,203,VALID,0,
2014-07-27, 01:58:04,VALID,1011.34,VALID,0,VALID,104,VALID,0,VALID,22.2524,VALID,203,VALID,0,
2014-07-27, 01:59:04,VALID,1011.35,VALID,0,VALID,104,VALID,0,VALID,22.2524,VALID,203,VALID,0,
2014-07-27, 02:00:04,VALID,1011.31,VALID,0,VALID,104,VALID,0.112112,VALID,22.2524,VALID,203,VALID,0,
2014-07-27, 02:01:04,VALID,1011.28,VALID,0,VALID,104,VALID,0,VALID,22.2524,VALID,203,VALID,0,
2014-07-27, 02:02:04,VALID,1011.27,VALID,0,VALID,104,VALID,0.112112,VALID,22.2329,VALID,203,VALID,0,
2014-07-27, 02:03:04,VALID,1011.24,VALID,0,VALID,104,VALID,0,VALID,22.2134,VALID,203,VALID,0,
2014-07-27, 02:04:04,VALID,1011.22,VALID,0,VALID,104,VALID,0,VALID,22.2329,VALID,203,VALID,0,
2014-07-27, 02:05:04,VALID,1011.23,VALID,0,VALID,104,VALID,0,VALID,22.194,VALID,203,VALID,0,
2014-07-27, 02:06:04,VALID,1011.23,VALID,0,VALID,104,VALID,0,VALID,22.194,VALID,203,VALID,0,
2014-07-27, 02:07:04,VALID,1011.23,VALID,0,VALID,104,VALID,0,VALID,22.194,VALID,203,VALID,0,
2014-07-27, 02:08:04,VALID,1011.23,VALID,0,VALID,104,VALID,0,VALID,22.194,VALID,203,VALID,0,
2014-07-27, 02:09:04,VALID,1011.24,VALID,0,VALID,104,VALID,0.112112,VALID,22.2134,VALID,203,VALID,0,
2014-07-27, 02:10:04,VALID,1011.21,VALID,0,VALID,104,VALID,0,VALID,22.2329,VALID,203,VALID,0,
2014-07-27, 02:11:04,VALID,1011.23,VALID,0,VALID,104,VALID,0.112112,VALID,22.2312,VALID,203,VALID,0,
2014-07-27, 02:12:04,VALID,1011.2,VALID,0,VALID,104,VALID,0,VALID,22.2524,VALID,203,VALID,0,
2014-07-27, 02:13:04,VALID,1011.19,VALID,0,VALID,104,VALID,0.112112,VALID,22.2524,VALID,203,VALID,0,
2014-07-27, 02:14:04,VALID,1011.17,VALID,0,VALID,104,VALID,0.112112,VALID,22.2312,VALID,203,VALID,0,
2014-07-27, 02:15:04,VALID,1011.13,VALID,0,VALID,104,VALID,0,VALID,22.2134,VALID,203,VALID,0,
2014-07-27, 02:16:04,VALID,1011.15,VALID,0,VALID,104,VALID,0,VALID,22.1923,VALID,203,VALID,0,
2014-07-27, 02:17:04,VALID,1011.13,VALID,0,VALID,104,VALID,0.112112,VALID,22.194,VALID,203,VALID,0,
2014-07-27, 02:18:04,VALID,1011.13,VALID,0,VALID,104,VALID,0.112112,VALID,22.1728,VALID,203,VALID,0,
2014-07-27, 02:19:04,VALID,1011.15,VALID,0,VALID,104,VALID,0.112112,VALID,22.2134,VALID,203,VALID,0,
2014-07-27, 02:20:04,VALID,1011.14,VALID,0,VALID,104,VALID,0,VALID,22.1923,VALID,203,VALID,0,
2014-07-27, 02:21:04,VALID,1011.13,VALID,0,VALID,104,VALID,0,VALID,22.2134,VALID,203,VALID,0,
2014-07-27, 02:22:04,VALID,1011.11,VALID,0,VALID,104,VALID,0,VALID,22.194,VALID,203,VALID,0,
2014-07-27, 02:23:04,VALID,1011.11,VALID,0,VALID,104,VALID,0,VALID,22.194,VALID,203,VALID,0,
2014-07-27, 02:24:04,VALID,1011.07,VALID,0,VALID,104,VALID,0,VALID,22.1745,VALID,203,VALID,0,
2014-07-27, 02:25:04,VALID,1011.06,VALID,0,VALID,104,VALID,0,VALID,22.1567,VALID,203,VALID,0,
2014-07-27, 02:26:04,VALID,1011.06,VALID,0,VALID,104,VALID,0,VALID,22.1355,VALID,203,VALID,0,
2014-07-27, 02:27:04,VALID,1011.07,VALID,0,VALID,104,VALID,0,VALID,22.1355,VALID,203,VALID,0,
2014-07-27, 02:28:04,VALID,1011.07,VALID,0,VALID,104,VALID,0,VALID,22.1161,VALID,203,VALID,0,
2014-07-27, 02:29:04,VALID,1011.09,VALID,0,VALID,104,VALID,0,VALID,22.0966,VALID,203,VALID,0,
2014-07-27, 02:30:04,VALID,1011.08,VALID,0,VALID,104,VALID,0,VALID,22.1161,VALID,203,VALID,0,
2014-07-27, 02:31:04,VALID,1011.06,VALID,0,VALID,104,VALID,0,VALID,22.1355,VALID,203,VALID,0,
2014-07-27, 02:32:04,VALID,1011.05,VALID,0,VALID,104,VALID,0,VALID,22.1355,VALID,203,VALID,0,
2014-07-27, 02:33:04,VALID,1011.02,VALID,0,VALID,104,VALID,0,VALID,22.1355,VALID,203,VALID,0,
2014-07-27, 02:34:04,VALID,1011.02,VALID,0,VALID,104,VALID,0,VALID,22.1355,VALID,203,VALID,0,
2014-07-27, 02:35:04,VALID,1011.01,VALID,0,VALID,104,VALID,0,VALID,22.1161,VALID,203,VALID,0,
2014-07-27, 02:36:04,VALID,1011,VALID,0,VALID,104,VALID,0,VALID,22.0754,VALID,203,VALID,0,
2014-07-27, 02:37:04,VALID,1010.95,VALID,0,VALID,104,VALID,0.112112,VALID,22.0966,VALID,203,VALID,0,
2014-07-27, 02:38:04,VALID,1010.95,VALID,0,VALID,104,VALID,0.112112,VALID,22.0966,VALID,203,VALID,0,
2014-07-27, 02:39:04,VALID,1010.96,VALID,0,VALID,104,VALID,0.112112,VALID,22.0754,VALID,203,VALID,0,
2014-07-27, 02:40:04,VALID,1010.94,VALID,0,VALID,104,VALID,0.112112,VALID,22.056,VALID,203,VALID,0,
2014-07-27, 02:41:04,VALID,1010.96,VALID,0,VALID,104,VALID,0.112112,VALID,22.0754,VALID,203,VALID,0,
2014-07-27, 02:42:04,VALID,1010.98,VALID,0,VALID,104,VALID,0.112112,VALID,22.1161,VALID,203,VALID,0,
2014-07-27, 02:43:04,VALID,1010.97,VALID,0,VALID,104,VALID,0,VALID,22.1355,VALID,203,VALID,0.388672,
2014-07-27, 02:44:04,VALID,1010.99,VALID,0,VALID,104,VALID,0,VALID,22.1745,VALID,203,VALID,0.489062,
2014-07-27, 02:45:04,VALID,1011,VALID,0,VALID,104,VALID,0,VALID,22.194,VALID,203,VALID,0.467969,
2014-07-27, 02:46:04,VALID,1010.99,VALID,0,VALID,104,VALID,0,VALID,22.194,VALID,203,VALID,0.348047,
2014-07-27, 02:47:04,VALID,1010.98,VALID,0,VALID,104,VALID,0,VALID,22.1745,VALID,203,VALID,0.219141,
2014-07-27, 02:48:04,VALID,1011.02,VALID,0,VALID,104,VALID,0.112112,VALID,22.1355,VALID,203,VALID,0.222266,
2014-07-27, 02:49:04,VALID,1011.02,VALID,0,VALID,104,VALID,0,VALID,22.0771,VALID,203,VALID,0.015625,
2014-07-27, 02:50:04,VALID,1011.04,VALID,0,VALID,104,VALID,0,VALID,22.0382,VALID,203,VALID,0,
2014-07-27, 02:51:04,VALID,1011.04,VALID,0,VALID,104,VALID,0,VALID,22.0204,VALID,203,VALID,0.132813,
2014-07-27, 02:52:04,VALID,1011.04,VALID,0,VALID,104,VALID,0,VALID,21.9975,VALID,203,VALID,0.203906,
2014-07-27, 02:53:04,VALID,1011.01,VALID,0,VALID,104,VALID,0,VALID,22.0187,VALID,203,VALID,0.467969,
2014-07-27, 02:54:04,VALID,1010.99,VALID,0,VALID,104,VALID,0,VALID,21.9975,VALID,203,VALID,0.419922,
2014-07-27, 02:55:04,VALID,1011,VALID,0,VALID,104,VALID,0,VALID,22.0382,VALID,203,VALID,0.416797,
2014-07-27, 02:56:04,VALID,1010.96,VALID,0,VALID,104,VALID,0,VALID,22.0576,VALID,203,VALID,0.169922,
2014-07-27, 02:57:04,VALID,1010.98,VALID,0,VALID,104,VALID,0,VALID,21.9992,VALID,203,VALID,0.0648438,
2014-07-27, 02:58:04,VALID,1010.99,VALID,0,VALID,104,VALID,0,VALID,21.9797,VALID,203,VALID,0,
2014-07-27, 02:59:04,VALID,1011,VALID,0,VALID,104,VALID,0,VALID,21.9408,VALID,203,VALID,0,
2014-07-27, 03:00:04,VALID,1011.01,VALID,0,VALID,104,VALID,0,VALID,21.9213,VALID,203,VALID,0,
2014-07-27, 03:01:04,VALID,1010.99,VALID,0,VALID,104,VALID,0,VALID,21.9018,VALID,203,VALID,0,
2014-07-27, 03:02:04,VALID,1010.99,VALID,0,VALID,104,VALID,0,VALID,21.8824,VALID,203,VALID,0,
2014-07-27, 03:03:04,VALID,1010.99,VALID,0,VALID,104,VALID,0,VALID,21.8629,VALID,203,VALID,0,
2014-07-27, 03:04:04,VALID,1010.98,VALID,0,VALID,104,VALID,0,VALID,21.8629,VALID,203,VALID,0,
2014-07-27, 03:05:04,VALID,1011.02,VALID,0,VALID,104,VALID,0,VALID,21.8434,VALID,203,VALID,0,
2014-07-27, 03:06:04,VALID,1011.02,VALID,0,VALID,104,VALID,0,VALID,21.8045,VALID,203,VALID,0,
2014-07-27, 03:07:04,VALID,1011.01,VALID,0,VALID,104,VALID,0.112112,VALID,21.8045,VALID,203,VALID,0,
2014-07-27, 03:08:04,VALID,1011.01,VALID,0,VALID,104,VALID,0.112112,VALID,21.8045,VALID,203,VALID,0,
2014-07-27, 03:09:04,VALID,1011.04,VALID,0,VALID,104,VALID,0,VALID,21.785,VALID,203,VALID,0,
2014-07-27, 03:10:04,VALID,1011.05,VALID,0,VALID,104,VALID,0.112112,VALID,21.7639,VALID,203,VALID,0,
2014-07-27, 03:11:04,VALID,1010.99,VALID,0,VALID,104,VALID,0.112112,VALID,21.7639,VALID,203,VALID,0,
2014-07-27, 03:12:04,VALID,1010.99,VALID,0,VALID,104,VALID,0.112112,VALID,21.7639,VALID,203,VALID,0,
2014-07-27, 03:13:04,VALID,1010.98,VALID,0,VALID,104,VALID,0.112112,VALID,21.7639,VALID,203,VALID,0,
2014-07-27, 03:14:04,VALID,1010.99,VALID,0,VALID,104,VALID,0.112112,VALID,21.7444,VALID,203,VALID,0,
2014-07-27, 03:15:04,VALID,1010.94,VALID,0,VALID,104,VALID,0.112112,VALID,21.7444,VALID,203,VALID,0,
2014-07-27, 03:16:04,VALID,1010.99,VALID,0,VALID,104,VALID,0.112112,VALID,21.7249,VALID,203,VALID,0,
2014-07-27, 03:17:04,VALID,1010.97,VALID,0,VALID,104,VALID,0.112112,VALID,21.7444,VALID,203,VALID,0,
2014-07-27, 03:18:04,VALID,1011.01,VALID,0,VALID,104,VALID,0.112112,VALID,21.7655,VALID,203,VALID,0,
2014-07-27, 03:19:04,VALID,1011.01,VALID,0,VALID,104,VALID,0.112112,VALID,21.7655,VALID,203,VALID,0,
2014-07-27, 03:20:04,VALID,1010.99,VALID,0,VALID,104,VALID,0.112112,VALID,21.7639,VALID,203,VALID,0,
2014-07-27, 03:21:04,VALID,1010.98,VALID,0,VALID,104,VALID,0.112112,VALID,21.8045,VALID,203,VALID,0,
2014-07-27, 03:22:04,VALID,1010.97,VALID,0,VALID,104,VALID,0,VALID,21.8256,VALID,203,VALID,0,
2014-07-27, 03:23:04,VALID,1010.98,VALID,0,VALID,104,VALID,0.112112,VALID,21.8045,VALID,203,VALID,0,
2014-07-27, 03:24:04,VALID,1010.98,VALID,0,VALID,104,VALID,0.112112,VALID,21.8045,VALID,203,VALID,0.156641,
2014-07-27, 03:25:04,VALID,1010.99,VALID,0,VALID,104,VALID,0.112112,VALID,21.8045,VALID,203,VALID,0.423438,
2014-07-27, 03:26:04,VALID,1011.01,VALID,0,VALID,104,VALID,0.112112,VALID,21.7833,VALID,203,VALID,0.251563,
2014-07-27, 03:27:04,VALID,1011.03,VALID,0,VALID,104,VALID,0.112112,VALID,21.7833,VALID,203,VALID,0.414844,
2014-07-27, 03:28:04,VALID,1011.03,VALID,0,VALID,104,VALID,0.112112,VALID,21.785,VALID,203,VALID,0.181641,
2014-07-27, 03:29:04,VALID,1011.07,VALID,0,VALID,104,VALID,0.112112,VALID,21.785,VALID,203,VALID,0.141797,
2014-07-27, 03:30:04,VALID,1011.05,VALID,0,VALID,104,VALID,0.112112,VALID,21.7655,VALID,203,VALID,0.287891,
2014-07-27, 03:31:04,VALID,1011.06,VALID,0,VALID,104,VALID,0.112112,VALID,21.746,VALID,203,VALID,0.217969,
2014-07-27, 03:32:04,VALID,1011.06,VALID,0,VALID,104,VALID,0.112112,VALID,21.686,VALID,203,VALID,0.0492188,
2014-07-27, 03:33:04,VALID,1011.06,VALID,0,VALID,104,VALID,0,VALID,21.7071,VALID,203,VALID,0,
2014-07-27, 03:34:04,VALID,1011.08,VALID,0,VALID,104,VALID,0.112112,VALID,21.686,VALID,203,VALID,0,
2014-07-27, 03:35:04,VALID,1011.08,VALID,0,VALID,104,VALID,0.112112,VALID,21.7071,VALID,203,VALID,0,
2014-07-27, 03:36:04,VALID,1011.09,VALID,0,VALID,104,VALID,0.112112,VALID,21.7266,VALID,203,VALID,0.190234,
2014-07-27, 03:37:04,VALID,1011.06,VALID,0,VALID,104,VALID,0,VALID,21.746,VALID,203,VALID,0.252734,
2014-07-27, 03:38:04,VALID,1011.05,VALID,0,VALID,104,VALID,0.112112,VALID,21.7655,VALID,203,VALID,0,
2014-07-27, 03:39:04,VALID,1011.07,VALID,0,VALID,104,VALID,0,VALID,21.7655,VALID,203,VALID,0,
2014-07-27, 03:40:04,VALID,1011.06,VALID,0,VALID,104,VALID,0.112112,VALID,21.785,VALID,203,VALID,0.184766,
2014-07-27, 03:41:04,VALID,1011.07,VALID,0,VALID,104,VALID,0.112112,VALID,21.785,VALID,203,VALID,0.316406,
2014-07-27, 03:42:04,VALID,1011.11,VALID,0,VALID,104,VALID,0.112112,VALID,21.785,VALID,203,VALID,0.102344,
2014-07-27, 03:43:04,VALID,1011.11,VALID,0,VALID,104,VALID,0.112112,VALID,21.7655,VALID,203,VALID,0,
2014-07-27, 03:44:04,VALID,1011.09,VALID,0,VALID,104,VALID,0.112112,VALID,21.746,VALID,203,VALID,0,
2014-07-27, 03:45:04,VALID,1011.09,VALID,0,VALID,104,VALID,0.112112,VALID,21.7266,VALID,203,VALID,0.00546875,
2014-07-27, 03:46:04,VALID,1011.13,VALID,0,VALID,104,VALID,0.112112,VALID,21.7266,VALID,203,VALID,0.00703125,
2014-07-27, 03:47:04,VALID,1011.11,VALID,0,VALID,104,VALID,0.112112,VALID,21.7054,VALID,203,VALID,0.385547,
2014-07-27, 03:48:04,VALID,1011.1,VALID,0,VALID,104,VALID,0.112112,VALID,21.7249,VALID,203,VALID,0,
2014-07-27, 03:49:04,VALID,1011.1,VALID,0,VALID,104,VALID,0.112112,VALID,21.746,VALID,203,VALID,0,
2014-07-27, 03:50:04,VALID,1011.09,VALID,0,VALID,104,VALID,0.112112,VALID,21.7249,VALID,203,VALID,0,
2014-07-27, 03:51:04,VALID,1011.08,VALID,0,VALID,104,VALID,0.112112,VALID,21.7266,VALID,203,VALID,0,
2014-07-27, 03:52:04,VALID,1011.11,VALID,0,VALID,104,VALID,0.112112,VALID,21.7266,VALID,203,VALID,0.182812,
2014-07-27, 03:53:04,VALID,1011.1,VALID,0,VALID,104,VALID,0.112112,VALID,21.7054,VALID,203,VALID,0,
2014-07-27, 03:54:04,VALID,1011.1,VALID,0,VALID,104,VALID,0.112112,VALID,21.7054,VALID,203,VALID,0.369141,
2014-07-27, 03:55:04,VALID,1011.09,VALID,0,VALID,104,VALID,0.112112,VALID,21.7249,VALID,203,VALID,0.355859,
2014-07-27, 03:56:04,VALID,1011.07,VALID,0,VALID,104,VALID,0.112112,VALID,21.7655,VALID,203,VALID,0.308984,